Regional Weather Roundup
Issued by NWS

Home | Current Version | Previous Version | Graphics & Text | Print | Product List | Glossary On
Versions: 1 2 3 4 5 6 7 8 9 10 11 12 13 14 15 16 17 18 19 20 21 22 23 24 25 26 27 28 29 30 31 32 33 34 35 36 37 38 39 40 41 42 43 44 45 46 47 48 49 50
000
ASUS43 KFSD 272202
RWRSD

WEATHER ROUNDUP FOR SOUTH DAKOTA
NATIONAL WEATHER SERVICE SIOUX FALLS SD
500 PM CDT SAT AUG 27 2016

NOTE: "FAIR" INDICATES FEW OR NO CLOUDS BELOW 12,000 FEET WITH NO
SIGNIFICANT WEATHER AND/OR OBSTRUCTIONS TO VISIBILITY.


SDZ001>005-009-010-012>017-272300-
NORTHWEST AND NORTH CENTRAL SOUTH DAKOTA

CITY           SKY/WX    TMP DP  RH WIND       PRES   REMARKS
BUFFALO          N/A     79  50  36 E9        29.82F
FAITH            N/A     82  49  31 SE9       29.89F
MOBRIDGE       CLOUDY    82  49  31 S9        29.87F
$$

SDZ012>016-024>037-041>051-057-063-072>074-272300-
SOUTHWEST AND SOUTH CENTRAL SOUTH DAKOTA

CITY           SKY/WX    TMP DP  RH WIND       PRES   REMARKS
RAPID CTY ARPT SUNNY     81  50  33 SE10      29.88F
PIERRE         SUNNY     82  55  39 E9G17     29.88F
CUSTER         SUNNY     74  39  28 SW12G20   30.05F
ELLSWORTH AFB  CLOUDY    80  54  41 E12       29.89F
PHILIP         SUNNY     83  56  39 VRB3      29.89F
PINE RIDGE     SUNNY     83  56  39 SE6       29.93F
WINNER         FAIR      87  59  38 S7G18     29.91F
$$

SDZ004>011-016>023-039-040-272300-
NORTHEAST SOUTH DAKOTA

CITY           SKY/WX    TMP DP  RH WIND       PRES   REMARKS
ABERDEEN       SUNNY     79  60  52 S10       29.91F
WATERTOWN      SUNNY     73  60  63 S13       29.96S
BROOKINGS      MOSUNNY   74  61  63 SW10      29.97S
$$

SDZ017-020-022-023-036>040-048>070-272300-
SOUTHEAST SOUTH DAKOTA

CITY           SKY/WX    TMP DP  RH WIND       PRES   REMARKS
SIOUX FALLS    MOSUNNY   76  65  68 S7        29.97F
HURON          MOSUNNY   81  59  47 S8        29.92S
CHAMBERLAIN    SUNNY     86  58  37 SW8       29.91F
MITCHELL       SUNNY     83  60  45 S8        29.93F
YANKTON        SUNNY     81  61  50 S12       29.94S
$$

ABBREVIATIONS USED IN REMARKS
   TC - TEMPERATURE IN CELSIUS
  WCI - WIND CHILL INDEX
   HX - HEAT INDEX
  VSB - VISIBILITY




USA.gov is the U.S. government's official web portal to all federal, state and local government web resources and services.